timestamp,wind_dir_avg,wind_spd_avg,wind_spd_max_dir,wind_spd_gust,battery_voltage,lat,long
2019-12-16 00:04:01+00:00,240.0,14.57,239.0,16.77,12.41,47.59359,-54.27349
2019-12-16 00:14:01+00:00,265.0,13.18,277.0,15.67,12.41,47.59359,-54.27349
2019-12-16 00:24:01+00:00,249.0,9.98,251.0,11.24,12.41,47.59359,-54.27349
2019-12-16 00:34:01+00:00,253.0,13.65,254.0,16.45,12.41,47.59359,-54.27349
2019-12-16 00:44:01+00:00,249.0,11.19,240.0,12.8,12.41,47.59359,-54.27349
2019-12-16 00:54:01+00:00,252.0,11.17,259.0,15.03,12.41,47.59359,-54.27349
2019-12-16 01:04:01+00:00,250.0,11.06,248.0,13.48,12.41,47.59359,-54.27349
2019-12-16 01:14:01+00:00,245.0,11.62,258.0,13.86,12.41,47.59359,-54.27349
2019-12-16 01:24:01+00:00,245.0,13.94,249.0,17.3,12.41,47.59359,-54.27349
2019-12-16 01:34:01+00:00,243.0,12.62,247.0,15.59,12.41,47.59359,-54.27349
2019-12-16 01:44:01+00:00,244.0,13.64,244.0,15.58,12.41,47.59359,-54.27349
2019-12-16 01:54:01+00:00,239.0,14.46,232.0,16.83,12.41,47.59359,-54.27349
2019-12-16 02:04:01+00:00,245.0,13.57,252.0,17.12,12.41,47.59359,-54.27349
2019-12-16 02:14:01+00:00,244.0,14.13,255.0,17.48,12.41,47.59359,-54.27349
2019-12-16 02:24:01+00:00,251.0,14.12,256.0,16.69,12.41,47.59359,-54.27349
2019-12-16 02:34:01+00:00,252.0,12.33,253.0,16.16,12.41,47.59359,-54.27349
2019-12-16 02:44:01+00:00,255.0,11.59,247.0,14.09,12.41,47.59359,-54.27349
2019-12-16 02:54:01+00:00,254.0,12.74,261.0,15.38,12.41,47.59359,-54.27349
2019-12-16 03:04:01+00:00,261.0,12.64,265.0,15.25,12.41,47.59359,-54.27349
2019-12-16 03:14:01+00:00,260.0,12.14,265.0,14.92,12.41,47.59359,-54.27349
2019-12-16 03:24:01+00:00,262.0,11.29,265.0,13.16,12.41,47.59359,-54.27349
2019-12-16 03:34:01+00:00,263.0,11.28,272.0,12.42,12.41,47.59359,-54.27349
2019-12-16 03:44:01+00:00,258.0,10.5,255.0,12.72,12.41,47.59359,-54.27349
2019-12-16 03:54:01+00:00,262.0,12.0,266.0,13.62,12.41,47.59359,-54.27349
2019-12-16 04:04:01+00:00,254.0,12.54,250.0,14.43,12.41,47.59359,-54.27349
2019-12-16 04:14:01+00:00,254.0,10.43,261.0,12.2,12.41,47.59359,-54.27349
2019-12-16 04:24:01+00:00,258.0,11.35,258.0,13.21,12.41,47.59359,-54.27349
2019-12-16 04:34:01+00:00,255.0,10.08,259.0,12.2,12.41,47.59359,-54.27349
2019-12-16 04:44:01+00:00,248.0,9.56,254.0,11.02,12.41,47.59359,-54.27349
2019-12-16 04:54:01+00:00,245.0,9.83,244.0,11.84,12.41,47.59359,-54.27349
2019-12-16 05:04:01+00:00,245.0,8.29,254.0,10.08,12.41,47.59359,-54.27349
2019-12-16 05:14:01+00:00,242.0,9.19,244.0,10.66,12.41,47.59359,-54.27349
2019-12-16 05:24:01+00:00,245.0,11.61,246.0,14.58,12.41,47.59359,-54.27349
2019-12-16 05:34:01+00:00,252.0,9.08,257.0,10.87,12.41,47.59359,-54.27349
2019-12-16 05:44:01+00:00,257.0,9.56,257.0,11.09,12.41,47.59359,-54.27349
2019-12-16 05:54:01+00:00,250.0,9.25,257.0,10.64,12.41,47.59359,-54.27349
2019-12-16 06:04:01+00:00,255.0,11.82,254.0,13.26,12.41,47.59359,-54.27349
2019-12-16 06:14:01+00:00,253.0,12.43,256.0,14.84,12.41,47.59359,-54.27349
2019-12-16 06:24:01+00:00,253.0,14.1,263.0,17.47,12.41,47.59359,-54.27349
2019-12-16 06:34:01+00:00,258.0,12.5,271.0,15.47,12.41,47.59359,-54.27349
2019-12-16 06:44:01+00:00,258.0,13.74,257.0,16.0,12.41,47.59359,-54.27349
2019-12-16 06:54:01+00:00,256.0,14.01,257.0,15.92,12.41,47.59359,-54.27349
2019-12-16 07:04:01+00:00,253.0,11.69,254.0,14.0,12.41,47.59359,-54.27349
2019-12-16 07:14:01+00:00,268.0,13.76,266.0,15.25,12.41,47.59359,-54.27349
2019-12-16 07:24:01+00:00,276.0,12.15,284.0,13.94,12.41,47.59359,-54.27349
2019-12-16 07:34:01+00:00,278.0,11.27,276.0,12.23,12.41,47.59359,-54.27349
2019-12-16 07:44:01+00:00,276.0,11.09,271.0,12.51,12.41,47.59359,-54.27349
2019-12-16 07:54:01+00:00,274.0,9.84,274.0,10.93,12.41,47.59359,-54.27349
2019-12-16 08:04:01+00:00,277.0,12.9,277.0,14.63,12.41,47.59359,-54.27349
2019-12-16 08:14:01+00:00,274.0,11.35,277.0,12.73,12.41,47.59359,-54.27349
2019-12-16 08:24:01+00:00,274.0,12.71,283.0,14.49,12.41,47.59359,-54.27349
2019-12-16 08:34:01+00:00,257.0,11.76,248.0,14.9,12.41,47.59359,-54.27349
2019-12-16 08:44:01+00:00,260.0,12.1,261.0,14.42,12.41,47.59359,-54.27349
2019-12-16 08:54:01+00:00,269.0,10.7,273.0,12.22,12.41,47.59359,-54.27349
2019-12-16 09:04:01+00:00,266.0,12.29,266.0,14.15,12.41,47.59359,-54.27349
2019-12-16 09:14:01+00:00,260.0,15.07,262.0,18.49,12.41,47.59359,-54.27349
2019-12-16 09:24:01+00:00,256.0,13.64,248.0,16.13,12.41,47.59359,-54.27349
2019-12-16 09:34:01+00:00,272.0,12.02,276.0,13.55,12.41,47.59359,-54.27349
2019-12-16 09:44:01+00:00,266.0,12.69,268.0,14.66,12.41,47.59359,-54.27349
2019-12-16 09:54:01+00:00,266.0,11.9,262.0,14.97,12.41,47.59359,-54.27349
2019-12-16 10:04:01+00:00,245.0,13.03,245.0,14.8,12.41,47.59359,-54.27349
2019-12-16 10:14:01+00:00,258.0,13.78,261.0,15.63,12.41,47.59359,-54.27349
2019-12-16 10:24:01+00:00,257.0,13.8,257.0,15.91,12.41,47.59359,-54.27349
2019-12-16 10:34:01+00:00,266.0,13.4,274.0,15.8,12.41,47.59359,-54.27349
2019-12-16 10:44:01+00:00,257.0,12.95,254.0,15.15,12.41,47.59359,-54.27349
2019-12-16 10:54:01+00:00,259.0,11.81,257.0,13.64,12.41,47.59359,-54.27349
2019-12-16 11:04:01+00:00,259.0,10.51,257.0,12.0,12.41,47.59359,-54.27349
2019-12-16 11:14:01+00:00,259.0,10.9,248.0,14.16,12.41,47.59359,-54.27349
2019-12-16 11:24:01+00:00,263.0,11.94,260.0,13.55,12.41,47.59359,-54.27349
2019-12-16 11:34:01+00:00,265.0,12.82,265.0,16.05,12.41,47.59359,-54.27349
2019-12-16 11:44:01+00:00,267.0,12.55,263.0,14.48,12.41,47.59359,-54.27349
2019-12-16 11:54:01+00:00,278.0,12.66,282.0,14.43,12.41,47.59359,-54.27349
2019-12-16 12:04:01+00:00,273.0,12.24,283.0,14.21,12.41,47.59359,-54.27349
2019-12-16 12:14:01+00:00,279.0,14.96,283.0,19.2,12.41,47.59359,-54.27349
2019-12-16 12:24:01+00:00,268.0,13.15,269.0,14.82,12.41,47.59359,-54.27349
2019-12-16 12:34:01+00:00,270.0,14.3,271.0,16.45,12.41,47.59359,-54.27349
2019-12-16 12:44:01+00:00,270.0,15.55,269.0,18.33,12.41,47.59359,-54.27349
2019-12-16 12:54:01+00:00,272.0,15.38,268.0,18.18,12.41,47.59359,-54.27349
2019-12-16 13:04:01+00:00,278.0,14.42,282.0,17.22,12.41,47.59359,-54.27349
2019-12-16 13:14:01+00:00,272.0,14.1,274.0,17.04,12.81,47.59359,-54.27349
2019-12-16 13:24:01+00:00,275.0,15.13,276.0,16.92,12.81,47.59359,-54.27349
2019-12-16 13:34:01+00:00,276.0,14.9,282.0,18.02,12.81,47.59359,-54.27349
2019-12-16 13:44:01+00:00,281.0,14.85,290.0,17.92,12.81,47.59359,-54.27349
2019-12-16 13:54:01+00:00,275.0,13.73,278.0,16.32,12.81,47.59359,-54.27349
2019-12-16 14:04:01+00:00,279.0,14.99,279.0,17.78,12.81,47.59359,-54.27349
2019-12-16 14:14:01+00:00,283.0,13.25,284.0,15.25,13.05,47.59359,-54.27349
2019-12-16 14:24:01+00:00,283.0,14.98,280.0,18.55,13.05,47.59359,-54.27349
2019-12-16 14:34:01+00:00,278.0,16.35,279.0,19.34,13.05,47.59359,-54.27349
2019-12-16 14:44:01+00:00,294.0,16.63,300.0,19.15,13.05,47.59359,-54.27349
2019-12-16 14:54:01+00:00,285.0,15.59,289.0,20.33,13.05,47.59359,-54.27349
2019-12-16 15:04:01+00:00,282.0,14.62,295.0,18.48,13.05,47.59359,-54.27349
2019-12-16 15:14:01+00:00,289.0,16.98,303.0,23.35,12.97,47.59359,-54.27349
2019-12-16 15:24:01+00:00,270.0,15.82,267.0,18.86,12.97,47.59359,-54.27349
2019-12-16 15:34:01+00:00,280.0,15.4,280.0,17.54,12.97,47.59359,-54.27349
2019-12-16 15:44:01+00:00,282.0,17.23,287.0,20.61,12.97,47.59359,-54.27349
2019-12-16 15:54:01+00:00,278.0,14.75,276.0,17.6,12.97,47.59359,-54.27349
2019-12-16 16:04:01+00:00,275.0,16.87,270.0,20.26,12.97,47.59359,-54.27349
2019-12-16 16:14:01+00:00,290.0,15.58,289.0,17.84,12.89,47.59359,-54.27349
2019-12-16 16:24:01+00:00,293.0,14.03,303.0,17.71,12.89,47.59359,-54.27349
2019-12-16 16:34:01+00:00,278.0,16.86,276.0,19.69,12.89,47.59359,-54.27349
2019-12-16 16:44:01+00:00,274.0,15.42,272.0,19.09,12.89,47.59359,-54.27349
2019-12-16 16:54:01+00:00,264.0,20.64,264.0,24.68,12.89,47.59359,-54.27349
2019-12-16 17:04:01+00:00,276.0,16.65,275.0,21.81,12.89,47.59359,-54.27349
2019-12-16 17:14:01+00:00,285.0,15.66,273.0,21.84,12.89,47.59359,-54.27349
2019-12-16 17:24:01+00:00,282.0,15.29,283.0,19.78,12.89,47.59359,-54.27349
2019-12-16 17:34:01+00:00,295.0,14.61,299.0,17.4,12.89,47.59359,-54.27349
2019-12-16 17:44:01+00:00,295.0,16.05,298.0,20.35,12.89,47.59359,-54.27349
2019-12-16 17:54:01+00:00,279.0,12.32,276.0,13.82,12.89,47.59359,-54.27349
2019-12-16 18:04:01+00:00,285.0,13.84,282.0,17.97,12.89,47.59359,-54.27349
2019-12-16 18:14:01+00:00,284.0,15.61,277.0,20.12,12.81,47.59359,-54.27349
2019-12-16 18:24:01+00:00,289.0,14.13,296.0,16.41,12.81,47.59359,-54.27349
2019-12-16 18:34:01+00:00,292.0,15.57,290.0,19.46,12.81,47.59359,-54.27349
2019-12-16 18:44:01+00:00,277.0,11.49,274.0,13.03,12.81,47.59359,-54.27349
2019-12-16 18:54:01+00:00,280.0,14.71,278.0,19.41,12.81,47.59359,-54.27349
2019-12-16 19:04:01+00:00,290.0,14.36,289.0,17.9,12.81,47.59359,-54.27349
2019-12-16 19:14:01+00:00,287.0,14.54,286.0,16.43,12.73,47.59359,-54.27349
2019-12-16 19:24:01+00:00,289.0,13.71,296.0,17.23,12.73,47.59359,-54.27349
2019-12-16 19:34:01+00:00,280.0,14.35,266.0,18.19,12.73,47.59359,-54.27349
2019-12-16 19:44:01+00:00,281.0,15.73,276.0,19.15,12.73,47.59359,-54.27349
2019-12-16 19:54:01+00:00,273.0,15.83,278.0,20.62,12.73,47.59359,-54.27349
2019-12-16 20:04:01+00:00,284.0,15.46,282.0,18.68,12.73,47.59359,-54.27349
2019-12-16 20:14:01+00:00,296.0,12.94,290.0,14.78,12.57,47.59359,-54.27349
2019-12-16 20:24:01+00:00,280.0,10.58,281.0,13.35,12.57,47.59359,-54.27349
2019-12-16 20:34:01+00:00,298.0,12.47,301.0,15.77,12.57,47.59359,-54.27349
2019-12-16 20:44:01+00:00,295.0,9.71,284.0,14.01,12.57,47.59359,-54.27349
2019-12-16 20:54:01+00:00,296.0,13.4,282.0,15.68,12.57,47.59359,-54.27349
2019-12-16 21:04:01+00:00,290.0,13.08,295.0,15.42,12.57,47.59359,-54.27349
2019-12-16 21:14:01+00:00,294.0,12.54,299.0,14.89,12.49,47.59359,-54.27349
2019-12-16 21:24:01+00:00,290.0,13.24,300.0,16.27,12.49,47.59359,-54.27349
2019-12-16 21:34:01+00:00,299.0,13.11,303.0,15.83,12.49,47.59359,-54.27349
2019-12-16 21:44:01+00:00,299.0,11.45,295.0,13.01,12.49,47.59359,-54.27349
2019-12-16 21:54:01+00:00,303.0,11.57,308.0,13.34,12.49,47.59359,-54.27349
2019-12-16 22:04:01+00:00,302.0,11.94,293.0,13.79,12.49,47.59359,-54.27349
2019-12-16 22:14:01+00:00,301.0,14.72,308.0,19.45,12.49,47.59359,-54.27349
2019-12-16 22:24:01+00:00,293.0,15.05,294.0,17.77,12.49,47.59359,-54.27349
2019-12-16 22:34:01+00:00,303.0,13.36,298.0,15.47,12.49,47.59359,-54.27349
2019-12-16 22:44:01+00:00,292.0,14.48,304.0,18.75,12.49,47.59359,-54.27349
2019-12-16 22:54:01+00:00,296.0,11.96,288.0,13.68,12.49,47.59359,-54.27349
2019-12-16 23:04:01+00:00,292.0,16.86,294.0,20.31,12.49,47.59359,-54.27349
2019-12-16 23:14:01+00:00,287.0,12.49,280.0,14.34,12.41,47.59359,-54.27349
2019-12-16 23:24:01+00:00,298.0,13.29,300.0,15.29,12.41,47.59359,-54.27349
2019-12-16 23:34:01+00:00,292.0,15.49,286.0,17.32,12.41,47.59359,-54.27349
2019-12-16 23:44:01+00:00,294.0,15.94,295.0,19.99,12.41,47.59359,-54.27349
2019-12-16 23:54:01+00:00,283.0,12.19,287.0,13.82,12.41,47.59359,-54.27349
